FW8265 Weather Reports


time (UTC)temp
C
wind
direction
speed
KPH
gust
KPH
rain 1hr
cm
rain 24hr
cm
rain mn
cm
humidity
%
barometer
mb
20260507124600 10 0 0.0 3.2 0.00 0.00 0.00 67 1015.6
20260507123058 9 0 0.0 0.0 0.00 0.00 0.00 72 1015.7
20260507121548 8 0 0.0 1.6 0.00 0.00 0.00 76 1015.7
20260507120052 6 0 0.0 0.0 0.00 0.00 0.00 88 1015.6
20260507114555 5 0 0.0 0.0 0.00 0.00 0.00 95 1015.7
20260507113125 3 0 0.0 0.0 0.00 0.00 0.00 96 1015.7
20260507111559 3 0 0.0 0.0 0.00 0.00 0.00 96 1015.5
20260507110051 3 0 0.0 0.0 0.00 0.00 0.00 95 1015.1
20260507104605 3 0 0.0 0.0 0.00 0.00 0.00 95 1015.0
20260507103051 3 0 0.0 0.0 0.00 0.00 0.00 95 1015.1
20260507101556 3 0 0.0 0.0 0.00 0.00 0.00 95 1015.0
20260507100059 3 0 0.0 0.0 0.00 0.00 0.00 95 1015.0
20260507094611 3 0 0.0 0.0 0.00 0.03 0.00 95 1015.0
20260507093052 4 0 0.0 0.0 0.00 0.03 0.00 94 1014.9
20260507091555 4 0 0.0 0.0 0.00 0.03 0.00 95 1014.7
20260507090049 4 0 0.0 0.0 0.00 0.03 0.00 94 1014.8
20260507084557 5 0 0.0 0.0 0.00 0.05 0.00 95 1014.7
20260507083053 5 0 0.0 0.0 0.00 0.05 0.00 94 1014.7
20260507081551 5 0 0.0 0.0 0.00 0.05 0.00 94 1014.6
20260507080054 5 0 0.0 0.0 0.00 0.05 0.00 94 1014.6
20260507074554 5 0 0.0 0.0 0.00 0.28 0.00 94 1014.5
20260507073047 5 0 0.0 0.0 0.00 0.28 0.00 93 1014.5
20260507071553 5 0 0.0 0.0 0.00 0.28 0.00 94 1014.5
20260507064556 5 0 0.0 0.0 0.00 0.86 0.00 93 1014.6
20260507063055 5 0 0.0 0.0 0.00 0.86 0.00 92 1014.9
20260507061550 5 0 0.0 0.0 0.00 0.86 0.00 92 1014.8
20260507060050 6 0 0.0 0.0 0.00 0.86 0.00 91 1014.8
20260507054545 6 0 0.0 0.0 0.00 1.32 0.00 90 1014.7
20260507053051 6 0 0.0 0.0 0.00 1.32 0.00 91 1015.0
20260507051559 6 0 0.0 0.0 0.00 1.32 0.00 90 1014.7
20260507050105 6 0 0.0 0.0 0.00 1.32 0.00 89 1014.9
20260507044553 6 0 0.0 0.0 0.00 1.55 0.00 89 1015.1
20260507043049 6 0 0.0 0.0 0.00 1.55 0.00 88 1015.1
20260507041546 7 0 0.0 0.0 0.00 1.55 0.00 87 1015.0
20260507040050 7 0 0.0 0.0 0.00 1.55 0.00 86 1014.8
20260507034550 7 0 0.0 0.0 0.00 1.60 1.55 85 1014.7
20260507033049 7 0 0.0 0.0 0.00 1.60 1.55 84 1015.0
20260507031552 8 0 0.0 0.0 0.00 1.60 1.55 83 1014.9
20260507030051 8 0 0.0 0.0 0.00 1.60 1.55 81 1014.8
20260507024551 8 0 0.0 0.0 0.00 1.83 1.55 81 1014.9
20260507023051 9 0 0.0 0.0 0.00 1.83 1.55 79 1014.7
20260507021559 10 0 0.0 0.0 0.00 1.83 1.55 78 1014.7
20260507020047 10 0 0.0 0.0 0.00 1.83 1.55 77 1014.5
20260507014551 10 0 0.0 0.0 0.00 2.01 1.55 75 1014.5
20260507013047 11 0 0.0 0.0 0.00 2.01 1.55 71 1014.4
20260507011556 11 0 0.0 0.0 0.00 2.01 1.55 71 1014.1
20260507010047 12 0 0.0 0.0 0.00 2.01 1.55 67 1014.2
20260507004550 12 0 0.0 1.6 0.00 2.01 1.55 65 1014.1
20260507003051 13 0 0.0 3.2 0.00 2.01 1.55 61 1014.1
20260507001547 13 0 0.0 0.0 0.00 2.01 1.55 62 1013.8
20260507000054 13 0 0.0 1.6 0.00 2.01 1.55 59 1013.8
20260506234607 13 0 0.0 3.2 0.00 2.03 1.55 58 1013.4
20260506233052 13 289 0.0 3.2 0.00 2.03 1.55 56 1013.2
20260506231551 14 0 0.0 3.2 0.00 2.03 1.55 57 1013.2
20260506230051 15 0 0.0 3.2 0.00 2.03 1.55 55 1012.9
20260506224553 15 0 0.0 4.8 0.00 2.03 1.55 56 1013.1
20260506223056 15 0 0.0 3.2 0.00 2.03 1.55 57 1013.1
20260506221551 15 0 0.0 4.8 0.00 2.03 1.55 57 1013.2
20260506220048 15 0 0.0 3.2 0.00 2.03 1.55 54 1013.6
20260506214547 15 0 0.0 3.2 0.00 2.13 1.55 54 1013.5
20260506213049 15 0 0.0 4.8 0.00 2.13 1.55 54 1013.4
20260506211547 15 0 0.0 3.2 0.00 2.13 1.55 55 1013.1
20260506210051 15 0 0.0 3.2 0.00 2.13 1.55 54 1012.9
20260506204558 15 0 0.0 4.8 0.00 3.02 1.55 55 1012.8
20260506203052 15 0 0.0 8.0 0.00 3.02 1.55 53 1012.9
20260506201556 16 0 0.0 9.7 0.00 3.02 1.55 54 1013.0
20260506200107 16 0 0.0 3.2 0.00 3.02 1.55 52 1012.9
20260506194611 16 69 0.0 6.4 0.00 3.33 1.55 51 1012.9
20260506193048 16 0 1.6 8.0 0.00 3.33 1.55 52 1012.8
20260506191548 16 0 0.0 11.3 0.00 3.33 1.55 57 1012.7
20260506190052 16 0 1.6 6.4 0.00 3.33 1.55 50 1012.6
20260506184552 16 184 1.6 9.7 0.00 3.33 1.55 54 1012.5
20260506183102 16 200 0.0 6.4 0.00 3.33 1.55 55 1012.5
20260506181558 15 0 1.6 6.4 0.00 3.33 1.55 59 1012.5
20260506180053 16 0 0.0 11.3 0.00 3.33 1.55 56 1012.8
20260506174549 15 0 0.0 6.4 0.00 3.33 1.55 58 1012.8
20260506173054 15 98 1.6 12.9 0.00 3.33 1.55 53 1013.0
20260506171551 15 0 0.0 6.4 0.00 3.33 1.55 58 1013.1
20260506170050 14 0 0.0 6.4 0.00 3.33 1.55 60 1013.2
20260506164552 13 0 1.6 11.3 0.00 3.33 1.55 62 1013.4
20260506163051 13 49 0.0 8.0 0.00 3.33 1.55 61 1013.3
20260506161551 13 0 0.0 6.4 0.00 3.33 1.55 65 1013.3
20260506160055 12 109 1.6 8.0 0.00 3.33 1.55 65 1013.2
20260506154556 12 0 0.0 11.3 0.00 3.33 1.55 70 1012.9
20260506153047 12 71 3.2 12.9 0.00 3.33 1.55 72 1013.2
20260506151602 12 0 1.6 6.4 0.00 3.33 1.55 72 1012.9
20260506150050 11 0 0.0 8.0 0.00 3.33 1.55 77 1012.9
20260506144550 11 0 0.0 8.0 0.00 3.33 1.55 77 1012.4
20260506143055 11 0 0.0 6.4 0.00 3.33 1.55 81 1012.4
20260506141545 10 0 0.0 6.4 0.00 3.33 1.55 82 1012.1
20260506140059 10 0 0.0 3.2 0.00 3.33 1.55 87 1011.7
20260506134549 9 0 0.0 4.8 0.00 3.33 1.55 87 1012.2
20260506133049 8 0 0.0 6.4 0.00 3.33 1.55 89 1012.1
20260506131555 8 0 0.0 9.7 0.00 3.33 1.55 91 1011.5
20260506130100 8 0 0.0 1.6 0.00 3.33 1.55 95 1011.4